Voltar ao catálogo

STARLINK-36561

AtivoComunicaçõesSSO
NORAD 67537·PAYLOAD·🇺🇸 United States

Lançado Jan 22, 2026 de Vandenberg Space Force Base

Loading…

Próximas Passagens (próximas 24 horas)

TLE

AtualizadoSource: CelesTrak SupGP

Época: Sep 14, 2026, 22:45 UTC

1 67537C 26014F   26257.94840278  .00025797  00000+0  80103-3 0  2576
2 67537  97.2846 143.3753 0001720  92.4297  11.2078 15.33415896    10

Acompanhe STARLINK-36561 em tempo real com AllMySat

Download on the App Store